| time (UTC) | temp C | wind direction | speed KPH | gust KPH | rain 1hr cm | rain 24hr cm | rain mn cm | humidity % | barometer mb |
| 20260831121601 | 20 | 0 | 0.0 | 1.6 | 0.00 | 0.00 | 0.00 | 96 | 1021.1 |
| 20260831120057 | 19 | 0 | 0.0 | 0.0 | 0.00 | 0.00 | 0.00 | 96 | 1021.0 |
| 20260831114556 | 18 | 0 | 0.0 | 0.0 | 0.00 | 0.00 | 0.00 | 95 | 1021.1 |
| 20260831113052 | 18 | 0 | 0.0 | 0.0 | 0.00 | 0.00 | 0.00 | 95 | 1021.0 |
| 20260831111612 | 18 | 0 | 0.0 | 0.0 | 0.00 | 0.00 | 0.00 | 95 | 1021.0 |
| 20260831110134 | 18 | 0 | 0.0 | 0.0 | 0.00 | 0.00 | 0.00 | 95 | 1020.9 |
| 20260831104551 | 18 | 0 | 0.0 | 0.0 | 0.00 | 0.00 | 0.00 | 95 | 1021.0 |
| 20260831103059 | 18 | 0 | 0.0 | 0.0 | 0.00 | 0.00 | 0.00 | 95 | 1020.8 |
| 20260831101552 | 18 | 0 | 0.0 | 0.0 | 0.00 | 0.00 | 0.00 | 95 | 1020.7 |
| 20260831100103 | 18 | 0 | 0.0 | 0.0 | 0.00 | 0.00 | 0.00 | 95 | 1020.7 |
| 20260831094624 | 18 | 0 | 0.0 | 0.0 | 0.00 | 0.00 | 0.00 | 95 | 1020.6 |
| 20260831093054 | 18 | 0 | 0.0 | 0.0 | 0.00 | 0.00 | 0.00 | 95 | 1020.6 |
| 20260831091555 | 19 | 0 | 0.0 | 0.0 | 0.00 | 0.00 | 0.00 | 95 | 1020.5 |
| 20260831090054 | 19 | 0 | 0.0 | 0.0 | 0.00 | 0.00 | 0.00 | 95 | 1020.4 |
| 20260831084603 | 19 | 0 | 0.0 | 0.0 | 0.00 | 0.00 | 0.00 | 95 | 1020.5 |
| 20260831083057 | 19 | 0 | 0.0 | 0.0 | 0.00 | 0.00 | 0.00 | 95 | 1020.4 |
| 20260831081632 | 19 | 0 | 0.0 | 0.0 | 0.00 | 0.00 | 0.00 | 94 | 1020.4 |
| 20260831080100 | 19 | 0 | 0.0 | 0.0 | 0.00 | 0.00 | 0.00 | 94 | 1020.3 |
| 20260831074602 | 19 | 0 | 0.0 | 0.0 | 0.00 | 0.00 | 0.00 | 94 | 1020.3 |
| 20260831073156 | 20 | 0 | 0.0 | 0.0 | 0.00 | 0.00 | 0.00 | 94 | 1020.4 |
| 20260831071553 | 19 | 0 | 0.0 | 0.0 | 0.00 | 0.00 | 0.00 | 94 | 1020.5 |
| 20260831070052 | 20 | 0 | 0.0 | 0.0 | 0.00 | 0.00 | 0.00 | 94 | 1020.5 |
| 20260831064602 | 20 | 0 | 0.0 | 0.0 | 0.00 | 0.00 | 0.00 | 94 | 1020.6 |
| 20260831063056 | 20 | 0 | 0.0 | 0.0 | 0.00 | 0.00 | 0.00 | 94 | 1020.7 |
| 20260831061554 | 20 | 0 | 0.0 | 0.0 | 0.00 | 0.00 | 0.00 | 94 | 1020.7 |
| 20260831060115 | 20 | 0 | 0.0 | 0.0 | 0.00 | 0.00 | 0.00 | 94 | 1020.8 |
| 20260831054554 | 20 | 0 | 0.0 | 0.0 | 0.00 | 0.00 | 0.00 | 94 | 1020.6 |
| 20260831053052 | 20 | 0 | 0.0 | 0.0 | 0.00 | 0.00 | 0.00 | 94 | 1020.6 |
| 20260831051555 | 20 | 0 | 0.0 | 0.0 | 0.00 | 0.00 | 0.00 | 94 | 1020.7 |
| 20260831050137 | 20 | 0 | 0.0 | 0.0 | 0.00 | 0.00 | 0.00 | 94 | 1020.6 |
| 20260831044551 | 20 | 0 | 0.0 | 0.0 | 0.00 | 0.00 | 0.00 | 94 | 1020.6 |
| 20260831043100 | 20 | 0 | 0.0 | 0.0 | 0.00 | 0.00 | 0.00 | 93 | 1020.7 |
| 20260831041555 | 21 | 0 | 0.0 | 0.0 | 0.00 | 0.00 | 0.00 | 93 | 1020.8 |
| 20260831034556 | 21 | 0 | 0.0 | 0.0 | 0.00 | 0.00 | 0.00 | 93 | 1020.8 |
| 20260831033052 | 21 | 0 | 0.0 | 0.0 | 0.00 | 0.00 | 0.00 | 93 | 1020.9 |
| 20260831031547 | 21 | 0 | 0.0 | 0.0 | 0.00 | 0.00 | 0.00 | 92 | 1021.1 |
| 20260831030059 | 21 | 0 | 0.0 | 0.0 | 0.00 | 0.00 | 0.00 | 93 | 1021.0 |
| 20260831024554 | 21 | 0 | 0.0 | 0.0 | 0.00 | 0.00 | 0.00 | 92 | 1021.0 |
| 20260831023056 | 21 | 0 | 0.0 | 0.0 | 0.00 | 0.00 | 0.00 | 92 | 1021.1 |
| 20260831021558 | 22 | 0 | 0.0 | 0.0 | 0.00 | 0.00 | 0.00 | 91 | 1021.1 |
| 20260831020055 | 22 | 0 | 0.0 | 0.0 | 0.00 | 0.00 | 0.00 | 91 | 1020.9 |
| 20260831014553 | 22 | 0 | 0.0 | 0.0 | 0.00 | 0.00 | 0.00 | 90 | 1020.9 |
| 20260831013100 | 22 | 0 | 0.0 | 0.0 | 0.00 | 0.00 | 0.00 | 90 | 1020.8 |
| 20260831011552 | 22 | 0 | 0.0 | 0.0 | 0.00 | 0.00 | 0.00 | 89 | 1020.7 |
| 20260831004555 | 23 | 0 | 0.0 | 0.0 | 0.00 | 0.00 | 0.00 | 87 | 1020.5 |
| 20260831003052 | 24 | 0 | 0.0 | 0.0 | 0.00 | 0.00 | 0.00 | 85 | 1020.3 |
| 20260831001552 | 25 | 0 | 0.0 | 0.0 | 0.00 | 0.00 | 0.00 | 81 | 1020.3 |
| 20260831000104 | 26 | 0 | 0.0 | 0.0 | 0.00 | 0.00 | 0.00 | 78 | 1020.3 |
| 20260830234601 | 26 | 0 | 0.0 | 3.2 | 0.00 | 0.00 | 0.00 | 75 | 1020.2 |
| 20260830233102 | 27 | 0 | 0.0 | 3.2 | 0.00 | 0.00 | 0.00 | 73 | 1020.4 |
| 20260830231552 | 27 | 65 | 0.0 | 6.4 | 0.00 | 0.00 | 0.00 | 71 | 1020.4 |
| 20260830230100 | 28 | 17 | 0.0 | 4.8 | 0.00 | 0.00 | 0.00 | 71 | 1020.3 |
| 20260830224553 | 28 | 0 | 0.0 | 4.8 | 0.00 | 0.05 | 0.00 | 68 | 1020.3 |
| 20260830223051 | 30 | 0 | 0.0 | 3.2 | 0.00 | 0.05 | 0.00 | 67 | 1020.2 |
| 20260830221551 | 30 | 0 | 1.6 | 6.4 | 0.00 | 0.05 | 0.00 | 66 | 1020.2 |
| 20260830220105 | 30 | 91 | 0.0 | 3.2 | 0.00 | 0.05 | 0.00 | 64 | 1020.1 |
| 20260830214553 | 30 | 229 | 0.0 | 4.8 | 0.00 | 0.05 | 0.00 | 64 | 1020.1 |
| 20260830213056 | 30 | 92 | 0.0 | 3.2 | 0.00 | 0.05 | 0.00 | 66 | 1020.3 |
| 20260830211555 | 30 | 0 | 0.0 | 6.4 | 0.00 | 0.05 | 0.00 | 65 | 1020.1 |
| 20260830210056 | 30 | 212 | 1.6 | 4.8 | 0.00 | 0.05 | 0.00 | 66 | 1020.2 |
| 20260830204558 | 30 | 105 | 1.6 | 12.9 | 0.00 | 0.05 | 0.00 | 64 | 1020.3 |
| 20260830203059 | 30 | 0 | 0.0 | 6.4 | 0.00 | 0.05 | 0.00 | 68 | 1020.3 |
| 20260830201604 | 28 | 147 | 0.0 | 3.2 | 0.00 | 0.05 | 0.00 | 71 | 1020.5 |
| 20260830194602 | 28 | 102 | 0.0 | 1.6 | 0.00 | 0.05 | 0.00 | 67 | 1020.8 |
| 20260830193058 | 28 | 0 | 0.0 | 1.6 | 0.00 | 0.05 | 0.00 | 69 | 1021.0 |
| 20260830191619 | 29 | 88 | 0.0 | 6.4 | 0.00 | 0.05 | 0.00 | 68 | 1021.3 |
| 20260830190107 | 30 | 0 | 0.0 | 6.4 | 0.00 | 0.05 | 0.00 | 64 | 1021.3 |
| 20260830184559 | 31 | 0 | 1.6 | 4.8 | 0.00 | 0.05 | 0.00 | 62 | 1021.6 |
| 20260830183056 | 30 | 0 | 0.0 | 4.8 | 0.00 | 0.05 | 0.00 | 62 | 1021.9 |
| 20260830181553 | 30 | 27 | 0.0 | 3.2 | 0.00 | 0.05 | 0.00 | 70 | 1022.2 |
| 20260830180056 | 29 | 0 | 0.0 | 3.2 | 0.00 | 0.05 | 0.00 | 66 | 1022.5 |
| 20260830174558 | 29 | 162 | 0.0 | 8.0 | 0.00 | 0.05 | 0.00 | 64 | 1022.7 |
| 20260830173055 | 30 | 85 | 0.0 | 9.7 | 0.00 | 0.05 | 0.00 | 66 | 1022.8 |
| 20260830171553 | 28 | 211 | 0.0 | 3.2 | 0.00 | 0.05 | 0.00 | 67 | 1022.9 |
| 20260830170059 | 28 | 95 | 0.0 | 4.8 | 0.00 | 0.05 | 0.00 | 70 | 1023.2 |
| 20260830164553 | 28 | 109 | 0.0 | 3.2 | 0.00 | 0.05 | 0.00 | 71 | 1023.2 |
| 20260830163058 | 28 | 0 | 0.0 | 3.2 | 0.00 | 0.05 | 0.00 | 69 | 1023.3 |
| 20260830161605 | 27 | 0 | 1.6 | 3.2 | 0.00 | 0.05 | 0.00 | 73 | 1023.6 |
| 20260830160057 | 26 | 0 | 0.0 | 4.8 | 0.00 | 0.05 | 0.00 | 77 | 1023.6 |
| 20260830154607 | 26 | 0 | 0.0 | 1.6 | 0.00 | 0.05 | 0.00 | 77 | 1023.6 |
| 20260830153103 | 26 | 21 | 0.0 | 3.2 | 0.00 | 0.05 | 0.00 | 78 | 1023.6 |
| 20260830151556 | 26 | 0 | 0.0 | 3.2 | 0.00 | 0.05 | 0.00 | 78 | 1023.6 |
| 20260830150052 | 26 | 0 | 0.0 | 4.8 | 0.00 | 0.05 | 0.00 | 79 | 1023.6 |
| 20260830144606 | 26 | 0 | 0.0 | 4.8 | 0.00 | 0.05 | 0.00 | 83 | 1023.6 |
| 20260830143100 | 25 | 35 | 0.0 | 4.8 | 0.00 | 0.05 | 0.00 | 85 | 1023.6 |
| 20260830141551 | 24 | 0 | 0.0 | 1.6 | 0.00 | 0.05 | 0.00 | 89 | 1023.6 |
| 20260830134555 | 22 | 0 | 0.0 | 1.6 | 0.00 | 0.05 | 0.00 | 91 | 1023.8 |
| 20260830133102 | 22 | 0 | 0.0 | 1.6 | 0.00 | 0.05 | 0.00 | 92 | 1023.8 |
| 20260830131557 | 22 | 0 | 0.0 | 1.6 | 0.00 | 0.05 | 0.00 | 92 | 1023.8 |
| 20260830130059 | 22 | 0 | 0.0 | 3.2 | 0.00 | 0.05 | 0.00 | 92 | 1023.8 |
| 20260830124558 | 22 | 0 | 0.0 | 3.2 | 0.00 | 0.05 | 0.00 | 93 | 1023.8 |
| 20260830123100 | 22 | 0 | 0.0 | 1.6 | 0.00 | 0.05 | 0.00 | 93 | 1023.8 |